This demonstration page uses our WeatherBlox Daily Observations layout. Learn more.

39.92423, -83.80882

Hourly Observations for November 15, 2019

Temp ( °F °C ) Dew Point ( °F °C ) Humidity (%) Winds ( mph kmh ) Pressure ( in mb ) Visibility ( mi km ) Precip ( " mm )
12:56 am 00:56 Clear 27 -2.8 25 -3.9 92 92 W 3 6 30.33 1027 10 16.0934 0 0
1:56 am 01:56 Clear 26 -3.3 25 -3.9 96 96 W 5 7 30.32 1027 10 16.0934 0 0
2:56 am 02:56 Clear 25 -3.9 24 -4.4 96 96 WNW 8 13 30.32 1027 10 16.0934 0 0
3:56 am 03:56 Clear 26 -3.3 24 -4.4 92 92 NW 9 15 30.32 1027 8 12.87472 0 0
4:41 am 04:41 Mostly Cloudy 27 -3 25 -4 93 93 NW 7 11 30.38 1029 7 11.26538 0 0
4:56 am 04:56 Mostly Cloudy 25 -3.9 24 -4.4 96 96 NW 7 11 30.35 1028 7 11.26538 0 0
5:06 am 05:06 Partly Cloudy with Mist and Fog 25 -4 25 -4 100 100 WNW 6 9 30.38 1029 6 9.65604 0 0
5:56 am 05:56 Clear with Mist and Fog 24 -4.4 23 -5 96 96 W 5 7 30.36 1028 5 8.0467 0 0
6:48 am 06:48 Mostly Cloudy with Mist and Fog 23 -5 23 -5 100 100 NW 6 9 30.4 1029 5 8.0467 0 0
6:56 am 06:56 Mostly Cloudy with Mist and Fog 25 -3.9 24 -4.4 96 96 NW 7 11 30.36 1028 6 9.65604 0 0
7:56 am 07:56 Cloudy with Mist and Fog 26 -3.3 24 -4.4 92 92 NW 6 9 30.37 1028 5 8.0467 0 0
8:56 am 08:56 Cloudy 26 -3.3 25 -3.9 96 96 WNW 8 13 30.37 1029 8 12.87472 0 0
9:56 am 09:56 Cloudy 27 -2.8 25 -3.9 92 92 N 5 7 30.38 1029 8 12.87472 0 0
10:56 am 10:56 Cloudy 29 -1.7 26 -3.3 89 89 WSW 3 6 30.38 1029 8 12.87472 0 0
11:37 am 11:37 Partly Cloudy 30 -1 27 -3 86 86 Calm 30.39 1029 9 14.48406 0 0
11:56 am 11:56 Sunny 32 0 27 -2.8 82 82 WSW 3 6 30.37 1028 10 16.0934 0 0
12:56 pm 12:56 Sunny 35 1.7 28 -2.2 76 76 WSW 6 9 30.35 1028 10 16.0934 0 0
1:56 pm 13:56 Sunny 39 3.9 28 -2.2 65 65 NW 6 9 30.34 1027 10 16.0934 0 0
2:56 pm 14:56 Sunny 41 5 29 -1.7 62 62 W 6 9 30.34 1028 10 16.0934 0 0
3:56 pm 15:56 Sunny 42 5.6 27 -2.8 55 55 NW 3 6 30.34 1027 10 16.0934 0 0
4:56 pm 16:56 Sunny 38 3.3 27 -2.8 65 65 NNW 6 9 30.35 1028 10 16.0934 0 0
5:56 pm 17:56 Clear 34 1.1 26 -3.3 73 73 NNW 6 9 30.36 1028 10 16.0934 0 0
6:56 pm 18:56 Clear 31 -0.6 27 -2.8 85 85 N 6 9 30.37 1028 10 16.0934 0 0
7:56 pm 19:56 Clear 32 0 27 -2.8 82 82 N 13 20 30.36 1028 10 16.0934 0 0
8:56 pm 20:56 Clear 30 -1.1 27 -2.8 88 88 NNE 9 15 30.37 1029 9 14.48406 0 0
9:56 pm 21:56 Partly Cloudy 28 -2.2 26 -3.3 92 92 NE 7 11 30.39 1029 7 11.26538 0 0
10:05 pm 22:05 Mostly Cloudy 28 -2 27 -3 93 93 NE 8 13 30.41 1030 7 11.26538 0 0
10:56 pm 22:56 Cloudy 31 -0.6 28 -2.2 89 89 NE 13 20 30.39 1029 8 12.87472 0 0
11:56 pm 23:56 Cloudy 31 -0.6 28 -2.2 89 89 ENE 13 20 30.4 1029 8 12.87472 0 0

Powered by AerisWeather